When you browse on this site, cookies collect data to enhance your experience and personalize the content and advertising you see.
Visit our Privacy Policy to learn more. By continuing to use the site, you agree to this use of cookies and data.
  • In Schweiz
  • Länderverzeichnis
  • Für 7 Tage
  • Wassertemperatur
  • Satellitenkarten
  • Wetterkarte
  • Widgets
  • user-avatar
    Anmelden

    Stündliche Wetter Tarhan

    Heute, 20 Februar, Mittwoch

    Zeit Temperatur Niederschläge Wind Luftdruck Luftfeuchtigkeit
    00:00 -8°C° 0 mm 4 m/S 750 mmHg 87%
    01:00 -8°C° 0 mm 4 m/S 750 mmHg 86%
    02:00 -8°C° 0 mm 4 m/S 750 mmHg 85%
    03:00 -10°C° 0 mm 5 m/S 749 mmHg 84%
    04:00 -10°C° 0 mm 5 m/S 749 mmHg 84%
    05:00 -10°C° 0 mm 5 m/S 748 mmHg 83%
    06:00 -10°C° 0 mm 5 m/S 748 mmHg 82%
    07:00 -9°C° 0 mm 6 m/S 747 mmHg 84%
    08:00 -9°C° 0 mm 6 m/S 747 mmHg 85%
    09:00 -9°C° 0 mm 6 m/S 746 mmHg 86%
    10:00 -8°C° 0.1 mm 6 m/S 746 mmHg 86%
    11:00 -6°C° 0.1 mm 6 m/S 746 mmHg 86%
    12:00 -5°C° 0.1 mm 6 m/S 745 mmHg 86%
    13:00 -4°C° 0.1 mm 6 m/S 745 mmHg 86%
    14:00 -3°C° 0.1 mm 6 m/S 745 mmHg 86%
    15:00 -3°C° 0.1 mm 6 m/S 745 mmHg 85%
    16:00 -3°C° 0 mm 6 m/S 744 mmHg 87%
    17:00 -3°C° 0 mm 6 m/S 744 mmHg 88%
    18:00 -3°C° 0 mm 6 m/S 744 mmHg 89%
    19:00 -3°C° 0.1 mm 6 m/S 744 mmHg 89%
    20:00 -2°C° 0.1 mm 5 m/S 744 mmHg 90%
    21:00 -1°C° 0.1 mm 5 m/S 743 mmHg 90%
    22:00 -1°C° 0.1 mm 5 m/S 743 mmHg 91%
    23:00 -1°C° 0.1 mm 5 m/S 743 mmHg 91%

    Morgen, 21 Februar, Donnerstag

    Zeit Temperatur Niederschläge Wind Luftdruck Luftfeuchtigkeit
    00:00 -1°C° 0.1 mm 5 m/S 742 mmHg 91%
    01:00 -1°C° 0 mm 5 m/S 742 mmHg 92%
    02:00 -1°C° 0 mm 4 m/S 742 mmHg 92%
    03:00 -1°C° 0 mm 4 m/S 741 mmHg 92%
    04:00 -1°C° 0 mm 5 m/S 741 mmHg 92%
    05:00 -1°C° 0 mm 5 m/S 740 mmHg 92%
    06:00 -1°C° 0 mm 5 m/S 739 mmHg 92%
    07:00 -1°C° 0.2 mm 5 m/S 739 mmHg 92%
    08:00 -1°C° 0.2 mm 5 m/S 739 mmHg 91%
    09:00 -1°C° 0.2 mm 5 m/S 739 mmHg 90%
    10:00 -1°C° 0.4 mm 5 m/S 739 mmHg 91%
    11:00 -1°C° 0.4 mm 5 m/S 739 mmHg 92%
    12:00 -1°C° 0.4 mm 5 m/S 739 mmHg 93%
    13:00 -1°C° 0.1 mm 4 m/S 739 mmHg 91%
    14:00 -2°C° 0.1 mm 4 m/S 739 mmHg 89%
    15:00 -2°C° 0.1 mm 4 m/S 739 mmHg 87%
    16:00 -2°C° 0 mm 3 m/S 739 mmHg 87%
    17:00 -4°C° 0 mm 3 m/S 739 mmHg 88%
    18:00 -4°C° 0 mm 2 m/S 739 mmHg 88%
    19:00 -4°C° 0 mm 2 m/S 739 mmHg 91%
    20:00 -5°C° 0 mm 2 m/S 739 mmHg 93%
    21:00 -3°C° 0 mm 1 m/S 739 mmHg 95%
    22:00 -3°C° 0.1 mm 1 m/S 739 mmHg 95%
    23:00 -5°C° 0.1 mm 2 m/S 739 mmHg 96%

    übermorgen, 22 Februar, Freitag

    Zeit Temperatur Niederschläge Wind Luftdruck Luftfeuchtigkeit
    00:00 -4°C° 0.1 mm 2 m/S 740 mmHg 97%
    01:00 -6°C° 0.3 mm 3 m/S 740 mmHg 94%
    02:00 -8°C° 0.3 mm 5 m/S 740 mmHg 91%
    03:00 -11°C° 0.3 mm 7 m/S 740 mmHg 89%
    04:00 -11°C° 0.2 mm 7 m/S 741 mmHg 88%
    05:00 -12°C° 0.2 mm 7 m/S 741 mmHg 88%
    06:00 -12°C° 0.2 mm 6 m/S 741 mmHg 87%
    07:00 -12°C° 0.1 mm 6 m/S 742 mmHg 87%
    08:00 -14°C° 0.1 mm 6 m/S 743 mmHg 86%
    09:00 -14°C° 0.1 mm 6 m/S 743 mmHg 86%
    10:00 -14°C° 0.1 mm 6 m/S 744 mmHg 85%
    11:00 -14°C° 0.1 mm 6 m/S 744 mmHg 83%
    12:00 -14°C° 0.1 mm 6 m/S 745 mmHg 82%
    13:00 -12°C° 0.1 mm 6 m/S 745 mmHg 82%
    14:00 -12°C° 0.1 mm 5 m/S 746 mmHg 81%
    15:00 -12°C° 0.1 mm 5 m/S 746 mmHg 81%
    16:00 -12°C° 0.1 mm 5 m/S 747 mmHg 82%
    17:00 -13°C° 0.1 mm 5 m/S 748 mmHg 84%
    18:00 -12°C° 0.1 mm 4 m/S 748 mmHg 86%
    19:00 -14°C° 0 mm 4 m/S 749 mmHg 86%
    20:00 -14°C° 0 mm 4 m/S 749 mmHg 87%
    21:00 -15°C° 0 mm 4 m/S 750 mmHg 88%
    22:00 -14°C° 0.1 mm 4 m/S 750 mmHg 88%
    23:00 -14°C° 0.1 mm 4 m/S 751 mmHg 89%

    23 Februar, Samstag

    Zeit Temperatur Niederschläge Wind Luftdruck Luftfeuchtigkeit
    00:00 -14°C° 0.1 mm 4 m/S 751 mmHg 90%
    01:00 -14°C° 0.1 mm 4 m/S 752 mmHg 90%
    02:00 -14°C° 0.1 mm 4 m/S 753 mmHg 90%
    03:00 -14°C° 0.1 mm 4 m/S 753 mmHg 91%
    04:00 -14°C° 0.1 mm 4 m/S 754 mmHg 90%
    05:00 -14°C° 0.1 mm 4 m/S 754 mmHg 90%
    06:00 -14°C° 0.1 mm 4 m/S 755 mmHg 90%
    07:00 -14°C° 0.1 mm 4 m/S 755 mmHg 89%
    08:00 -14°C° 0.1 mm 4 m/S 756 mmHg 89%
    09:00 -14°C° 0.1 mm 4 m/S 757 mmHg 88%
    10:00 -14°C° 0 mm 4 m/S 757 mmHg 87%
    11:00 -13°C° 0 mm 3 m/S 758 mmHg 85%
    12:00 -12°C° 0 mm 3 m/S 758 mmHg 83%
    13:00 -12°C° 0 mm 3 m/S 759 mmHg 83%
    14:00 -12°C° 0 mm 3 m/S 759 mmHg 83%
    15:00 -12°C° 0 mm 3 m/S 759 mmHg 82%
    16:00 -12°C° 0 mm 3 m/S 759 mmHg 85%
    17:00 -12°C° 0 mm 2 m/S 760 mmHg 88%
    18:00 -13°C° 0 mm 2 m/S 760 mmHg 90%
    19:00 -14°C° 0 mm 2 m/S 760 mmHg 91%
    20:00 -14°C° 0 mm 2 m/S 761 mmHg 92%
    21:00 -15°C° 0 mm 2 m/S 761 mmHg 93%
    22:00 -15°C° 0 mm 2 m/S 761 mmHg 94%
    23:00 -13°C° 0 mm 1 m/S 761 mmHg 94%

    24 Februar, Sonntag

    Zeit Temperatur Niederschläge Wind Luftdruck Luftfeuchtigkeit
    00:00 -14°C° 0 mm 1 m/S 761 mmHg 94%
    01:00 -14°C° 0 mm 1 m/S 761 mmHg 94%
    02:00 -14°C° 0 mm 1 m/S 761 mmHg 95%
    03:00 -14°C° 0 mm 1 m/S 761 mmHg 95%
    04:00 -15°C° 0 mm 1 m/S 761 mmHg 95%
    05:00 -15°C° 0 mm 1 m/S 761 mmHg 95%
    06:00 -15°C° 0 mm 1 m/S 761 mmHg 95%
    07:00 -14°C° 0 mm 1 m/S 762 mmHg 94%
    08:00 -13°C° 0 mm 1 m/S 762 mmHg 94%
    09:00 -13°C° 0 mm 1 m/S 762 mmHg 93%
    10:00 -11°C° 0 mm 1 m/S 762 mmHg 90%
    11:00 -10°C° 0 mm 1 m/S 762 mmHg 88%
    12:00 -10°C° 0 mm 2 m/S 762 mmHg 85%
    13:00 -9°C° 0 mm 2 m/S 762 mmHg 86%
    14:00 -9°C° 0 mm 2 m/S 762 mmHg 86%
    15:00 -9°C° 0 mm 2 m/S 762 mmHg 86%
    16:00 -10°C° 0 mm 2 m/S 762 mmHg 89%
    17:00 -12°C° 0 mm 2 m/S 762 mmHg 91%
    18:00 -13°C° 0 mm 2 m/S 762 mmHg 93%
    19:00 -14°C° 0 mm 2 m/S 762 mmHg 92%
    20:00 -14°C° 0 mm 2 m/S 762 mmHg 92%
    21:00 -15°C° 0 mm 2 m/S 762 mmHg 92%
    22:00 -15°C° 0 mm 2 m/S 761 mmHg 91%
    23:00 -15°C° 0 mm 2 m/S 761 mmHg 89%

    25 Februar, Montag

    Zeit Temperatur Niederschläge Wind Luftdruck Luftfeuchtigkeit
    00:00 -16°C° 0 mm 2 m/S 761 mmHg 88%
    01:00 -15°C° 0 mm 2 m/S 761 mmHg 89%
    02:00 -14°C° 0 mm 2 m/S 760 mmHg 91%
    03:00 -14°C° 0 mm 2 m/S 760 mmHg 92%
    04:00 -13°C° 0 mm 2 m/S 760 mmHg 93%
    05:00 -14°C° 0 mm 3 m/S 759 mmHg 94%
    06:00 -13°C° 0 mm 3 m/S 758 mmHg 95%
    07:00 -13°C° 0 mm 3 m/S 758 mmHg 94%
    08:00 -12°C° 0 mm 3 m/S 758 mmHg 94%
    09:00 -11°C° 0 mm 4 m/S 757 mmHg 94%
    10:00 -10°C° 0 mm 4 m/S 757 mmHg 93%
    11:00 -9°C° 0 mm 4 m/S 756 mmHg 93%
    12:00 -7°C° 0 mm 5 m/S 755 mmHg 92%
    13:00 -7°C° 0 mm 5 m/S 754 mmHg 91%
    14:00 -6°C° 0 mm 5 m/S 754 mmHg 91%
    15:00 -5°C° 0 mm 5 m/S 753 mmHg 90%
    16:00 -5°C° 0.1 mm 5 m/S 752 mmHg 90%
    17:00 -5°C° 0.1 mm 5 m/S 751 mmHg 90%
    18:00 -5°C° 0.1 mm 5 m/S 751 mmHg 90%
    19:00 -5°C° 0.2 mm 5 m/S 750 mmHg 91%
    20:00 -4°C° 0.2 mm 4 m/S 749 mmHg 92%
    21:00 -4°C° 0.2 mm 4 m/S 749 mmHg 93%
    22:00 -4°C° 0.2 mm 4 m/S 748 mmHg 94%
    23:00 -4°C° 0.2 mm 4 m/S 748 mmHg 94%
    Mehr zeigen